Other Public Products
Issued by NWS Charleston, SC

Current Version | Previous Version | Text Only | Print | Product List | Glossary On
Versions: 1 2 3 4 5 6 7 8 9 10 11 12 13 14 15 16 17 18 19 20 21 22 23 24 25 26 27 28 29 30 31 32 33 34 35 36 37 38 39 40 41 42 43 44 45 46 47 48 49 50
000
FPUS82 KCHS 270827
OPUCHS

TEST...KCHS/KSAV Gateway Observations...TEST
National Weather Service Charleston SC
400 AM EDT FRI APR 27 2018

NOTE: "fair" indicates few or no clouds below 12,000 feet with no
significant weather and/or obstructions to visibility.

SCZ050-WAZ558-NCZ071-TXZ119-213-PAZ071-DCZ001-FLZ074-172-MI076-
NYZ176-178-MAZ016-IL014-TNZ027-NJZ106-GAZ044-MD014-270900-

...Gateway Observations for Charleston International...

CITY           SKY/WX    TMP DP  RH WIND       PRES   REMARKS
Chas Airport   FAIR      65  63  93 S7        29.77S
Seattle        PTCLDY    52  48  86 S6        29.91R
Charlotte      FAIR      54  54 100 S3        29.79S FOG
Dallas DFW     MOCLDY    58  51  78 NW5       30.04S
Dallas Love    CLOUDY    61  51  70 CALM      30.05S
Philladelphia  CLOUDY    54  46  74 E3        29.83F
Wash National  TSTM      56  50  80 SE3       29.81R
Baltimore      TSTM      54  52  93 S6        29.81R FOG
Miami          MOCLDY    75  69  81 SE6       29.90R
Detroit        MOCLDY    44  38  79 S3        29.77F
Newark         MOCLDY    59  43  55 E7        29.85R
Laguardia      MOCLDY    54  43  66 NE6       29.85S
J F K          CLOUDY    53  46  77 E7        29.86F
Boston Logan   FAIR      50  41  71 W6        29.87S
Ft. Lauderdale MOCLDY    73  67  81 N5        29.88F
Chicago O`Hare MOCLDY    55  32  41 SW7       29.72F
Chicago Midway MOCLDY    53  31  42 S8        29.73F
Houston Bush   FAIR      55  52  89 E9        29.98F
Houston Hobby  FAIR      60  54  80 E8        29.97F
Nashville      FAIR      50  48  93 W3        29.87F FOG
Atlanta        CLOUDY    53  53 100 NW15      29.82R FOG

$$

GAZ044-118-TXZ119-213-NCZ071-DCZ001-MDZ014-506-PAZ021-071-NJZ106-
NYZ176-178-MAZ106-OHZ011-021-055-MIZ076-KYZ091-ILZ014-INZ047-
MNZ060-ONZ431-270900-

...Gateway Observations for Savannah International...

CITY           SKY/WX    TMP DP  RH WIND       PRES   REMARKS
Savannah Arpt  MOCLDY    60  59  96 W3        29.80R
Atlanta        CLOUDY    53  53 100 NW15      29.82R FOG
Charlotte      FAIR      54  54 100 S3        29.79S FOG
Dallas DFW     MOCLDY    58  51  78 NW5       30.04S
Houston Bush   FAIR      55  52  89 E9        29.98F
Wash National  TSTM      56  50  80 SE3       29.81R
Wash Dulles    RAIN      52  52 100 CALM      29.81R FOG
Baltimore      TSTM      54  52  93 S6        29.81R FOG
Philadelphia   CLOUDY    54  46  74 E3        29.83F
Newark         MOCLDY    59  43  55 E7        29.85R
Laguardia      MOCLDY    54  43  66 NE6       29.85S
J F K          CLOUDY    53  46  77 E7        29.86F
Boston         FAIR      50  41  71 W6        29.87S
Pittsburg      CLOUDY    48  38  68 CALM      29.78F
Akron          MOCLDY    46  36  68 E3        29.79F
Cleveland      FAIR      46  36  68 CALM      29.80F
Cincinnati     MOCLDY    47  34  60 W5        29.79S
Columbus       FAIR      49  44  82 N3        29.76F
Detroit        MOCLDY    44  38  79 S3        29.77F
Chicago O`Hare MOCLDY    55  32  41 SW7       29.72F
Minneapolis    FAIR      44  30  57 SW5       29.88F
Indianapolis   FAIR      47  34  60 W6        29.80F
Toronto Canada PTCLDY    39  30  70 N5        29.79F WCI  36

$$




USA.gov is the U.S. government's official web portal to all federal, state and local government web resources and services.